Regional Weather Roundup
Issued by NWS Charleston, WV

Home | Current Version | Previous Version | Graphics & Text | Print | Product List | Glossary On
Versions: 1 2 3 4 5 6 7 8 9 10 11 12 13 14 15 16 17 18 19 20 21 22 23 24 25 26 27 28 29 30 31 32 33 34 35 36 37 38 39 40 41 42 43 44 45 46 47 48 49 50
000
ASUS41 KRLX 190810
RWRRLX
West Virginia Regional Weather Roundup
National Weather Service Charleston WV
400 AM EDT TUE SEP 19 2017

Note: "fair" indicates few or no clouds below 12,000 feet with no
significant weather and/or obstructions to visibility.

WVZ003-190900-
Northern Panhandle of West Virginia

CITY           SKY/WX    TMP DP  RH WIND       PRES   REMARKS
WHEELING       PTCLDY    65  61  87 SE6       30.02S
$$

WVZ009-190900-
Northwest West Virginia

CITY           SKY/WX    TMP DP  RH WIND       PRES   REMARKS
PARKERSBURG    FOG       62  61  96 CALM      30.03S VSB 1/4
$$

WVZ006-190900-
Western West Virginia

CITY           SKY/WX    TMP DP  RH WIND       PRES   REMARKS
HUNTINGTON     PTCLDY    64  62  93 CALM      30.00S FOG
$$

WVZ015-190900-
West Central West Virginia

CITY           SKY/WX    TMP DP  RH WIND       PRES   REMARKS
CHARLESTON     FOG       63  61  93 CALM      30.01S VSB 1
$$

WVZ022-031-190900-
North Central West Virginia

CITY           SKY/WX    TMP DP  RH WIND       PRES   REMARKS
CLARKSBURG     CLEAR     63  60  90 CALM      30.02F
MORGANTOWN     CLEAR     65  60  84 CALM      30.04S
$$

WVZ025-035-042-045-190900-
Southern West Virginia

CITY           SKY/WX    TMP DP  RH WIND       PRES   REMARKS
BECKLEY        CLEAR     59  58  96 SE3       30.08R
LOGAN          FOG       63  63 100 CALM      30.03S VSB<1/4
BLUEFIELD      CLEAR     62  58  86 SE3       30.09F
LEWISBURG      CLOUDY    60  59  96 E3        30.07S FOG
$$

WVZ047-190900-
Northern Mountains of West Virginia

CITY           SKY/WX    TMP DP  RH WIND       PRES   REMARKS
ELKINS         FOG       59  57  93 CALM      30.08F VSB 1/4
$$

WVZ052-190900-
Eastern Panhandle of West Virginia

CITY           SKY/WX    TMP DP  RH WIND       PRES   REMARKS
MARTINSBURG    CLOUDY    67  63  87 N7        30.02F
PETERSBURG     CLOUDY    65  65  97 CALM      30.05S FOG
$$



USA.gov is the U.S. government's official web portal to all federal, state and local government web resources and services.